Regional Weather Roundup
Issued by NWS Sterling, VA

Home | Current Version | Previous Version | Text Only | Print | Product List | Glossary Off
Versions: 1 2 3 4 5 6 7 8 9 10 11 12 13 14 15 16 17 18 19 20 21 22 23 24 25 26 27 28 29 30 31 32 33 34 35 36 37 38 39 40 41 42 43 44 45 46 47 48 49 50

000
ASUS41 KLWX 220010
RWRLWX

REGIONAL WEATHER ROUNDUP
NATIONAL WEATHER SERVICE BALTIMORE MD/WASHINGTON DC
700 PM EST SUN DEC 21 2014

Note: "FAIR" indicates few or no clouds below 12,000 feet
with no significant weather and/or obstructions to visibility.
 TC=TEMPERATURE CELSIUS

 * =Non NWS site. Station does not report precipitation (e.g. rain,
    snow, etc.), thunder, or fog.

DCZ001-MDZ009-015-VAZ040>042-051-053>054-220100-
WASHINGTON METRO

CITY           SKY/WX    TMP DP  RH WIND       PRES   REMARKS
WASHINGTON NAT FAIR      40  27  59 NE6       30.32S
DULLES         PTCLDY    33  24  69 NE5       30.31S
ANDREWS AFB    PTCLDY    32  24  72 CALM      30.31R
FT BELVOIR     CLEAR     30  24  78 CALM      30.32F
QUANTICO       CLEAR     34  27  75 CALM      30.32F
COLLEGE PARK*  FAIR      32  27  80 CALM      30.32F
LEESBURG*      PTCLDY    34  28  80 NE3       30.31F
MANASSAS*      CLEAR     30  27  86 CALM      30.31S
GAITHERSBURG*  CLEAR     28  21  74 CALM      30.34F

$$

MDZ006>007-011-014-220100-
BALTIMORE METRO

CITY           SKY/WX    TMP DP  RH WIND       PRES   REMARKS
BWI AIRPORT    PTCLDY    35  24  64 E5        30.34R
MD SCIENCE CTR   N/A     37  24  59 MISG      30.34R
MARTIN STATE   CLEAR     34  27  75 CALM      30.38R
ANNAPOLIS      CLEAR     34  27  75 CALM      30.34R
FORT MEADE*    CLEAR     28  23  80 CALM      30.35R

$$

MDZ012-015-019>023-220100-
MARYLAND EASTERN SHORE

CITY           SKY/WX    TMP DP  RH WIND       PRES   REMARKS
OCEAN CITY     CLEAR     26  25  96 CALM      30.33S FOG
SALISBURY      CLEAR     31  24  75 CALM      30.33R
BAY BRIDGE AP*   N/A     34  25  69 NE3       30.35R
CAMBRIDGE*     CLEAR     32  27  80 CALM      30.33R

$$

MDZ017>025-220100-
SOUTHERN MARYLAND

CITY           SKY/WX    TMP DP  RH WIND       PRES   REMARKS
PATUXENT RIVER CLEAR     28  23  81 CALM      30.33R
ST INIGOES     CLEAR     30  24  78 CALM      30.32R
LEONARDTOWN*   CLEAR     30  27  86 CALM      30.34S

$$

MDZ003>005-220100-
NORTH CENTRAL MARYLAND

CITY           SKY/WX    TMP DP  RH WIND       PRES   REMARKS
FREDERICK*     CLEAR     30  25  80 CALM      30.36R
HAGERSTOWN APT CLEAR     31  20  63 E7        30.29S
WESTMINSTER*   PTCLDY    30  21  69 NE3       30.31R

$$

MDZ501>502-220100-
WESTERN MARYLAND

CITY           SKY/WX    TMP DP  RH WIND       PRES   REMARKS
OAKLAND*       PTCLDY    28 N/A N/A SE9       30.14S WCI  20
CUMBERLAND*    PTCLDY    34  27  75 NW3       30.31R

$$

VAZ025>031-220100-
SHENANDOAH VALLEY

CITY           SKY/WX    TMP DP  RH WIND       PRES   REMARKS
WINCHESTER*    PTCLDY    34  21  60 CALM      30.28S
FRONT ROYAL*   FAIR      32  27  80 N3        30.26S
LURAY*         FAIR      34  28  80 N6        30.25R
NEW MARKET*    FAIR      34  25  70 N6        30.25R
STAUNTON*      CLEAR     32  25  75 CALM      30.25R
WAYNESBORO*    FAIR      34  26  72 SE6       30.23R

$$

WVZ021-048>050-054>055-220100-
EASTERN WEST VIRGINIA PANHANDLE

CITY           SKY/WX    TMP DP  RH WIND       PRES   REMARKS
MARTINSBURG    PTCLDY    31  21  66 NE3       30.29F
PETERSBURG*    CLEAR     32  27  82 CALM      30.25R

$$

VAZ036>039-050-220100-
CENTRAL FOOTHILLS

CITY           SKY/WX    TMP DP  RH WIND       PRES   REMARKS
CHARLOTTESVILL CLEAR     37  26  64 E3        30.28R
CULPEPER*      CLEAR     28  27  93 CALM      30.31R
ORANGE*        CLEAR     30  28  93 CALM      30.31R
GORDONSVILLE*  FAIR      29  25  85 CALM      30.29R
WARRENTON*     FAIR      29  28  94 CALM      30.29S

$$

VAZ055>057-220100-
NORTH AND CENTRAL PIEDMONT

CITY           SKY/WX    TMP DP  RH WIND       PRES   REMARKS
FREDERICKSBRG* CLEAR     32  27  80 CALM      30.30S
STAFFORD*      CLEAR     29  24  79 CALM      30.35S

$$

NCZ024-NYZ072-PAZ021-071-VAZ022-071-220100-
OTHER REGIONAL OBSERVATIONS

CITY           SKY/WX    TMP DP  RH WIND       PRES   REMARKS
NEW YORK CITY  CLOUDY    34  27  75 NE6       30.36R
PHILADELPHIA   PTCLDY    34  22  61 NE3       30.35R
PITTSBURGH     PTCLDY    29  22  75 E5        30.22F
ROANOKE        PTCLDY    37  30  75 SE6       30.25R
RICHMOND       PTCLDY    39  26  59 E5        30.30S
RALEIGH        CLOUDY    45  34  65 E6        30.25F

$$

ANZ530>537-220100-
MARINE OBSERVATIONS

STATION/POSITION TIME  TEMP    WIND        PRES
                       AIR SEA DIR/SP/G
                 (UTC) (F)     (DEG/KT/KT) (MB)
THOMAS PT LIGHT  0000   39 41   50/  7/  8 1028.3R
BALT KEY BRIDGE  0000   37      50/  4/  5 1027.5R
COVE POINT       0000   37      80/  7/  7 1026.8F
LEWISETTA        0000   39 41   60/  7/  8 1026.5S
SOLOMONS ISLAND  0000      43                N/A

$$



USA.gov is the U.S. government's official web portal to all federal, state and local government web resources and services.